When you browse on this site, cookies collect data to enhance your experience and personalize the content and advertising you see.
Visit our Privacy Policy to learn more. By continuing to use the site, you agree to this use of cookies and data.
  • în România
  • Lista ţărilor
  • Pe 7 zile
  • Temperatura apei
  • Hartă satelitară
  • Meteo pe hartă
  • Widget-uri
  • user-avatar
    Intrare

    Meteo pe oră la Mérida

    Astăzi, 18 Februarie, Luni

    Timp Temperatura Precipitaţii Vânt Presiune Umiditate
    00:00 +16°C° 0.3 mm 1 m/s 593 mmHg 89%
    01:00 +16°C° 0 mm 1 m/s 593 mmHg 89%
    02:00 +16°C° 0.5 mm 1 m/s 593 mmHg 89%
    03:00 +16°C° 0.5 mm 1 m/s 593 mmHg 89%
    04:00 +16°C° 0.5 mm 1 m/s 593 mmHg 89%
    05:00 +16°C° 0.3 mm 1 m/s 593 mmHg 89%
    06:00 +16°C° 0.3 mm 1 m/s 594 mmHg 89%
    07:00 +16°C° 0.3 mm 1 m/s 594 mmHg 89%
    08:00 +16°C° 0.2 mm 1 m/s 595 mmHg 87%
    09:00 +18°C° 0.2 mm 1 m/s 595 mmHg 84%
    10:00 +19°C° 0.2 mm 1 m/s 596 mmHg 82%
    11:00 +19°C° 0.7 mm 1 m/s 595 mmHg 83%
    12:00 +19°C° 0.7 mm 1 m/s 595 mmHg 84%
    13:00 +18°C° 0.7 mm 1 m/s 594 mmHg 85%
    14:00 +18°C° 0.7 mm 1 m/s 593 mmHg 85%
    15:00 +18°C° 0.7 mm 1 m/s 593 mmHg 84%
    16:00 +18°C° 0.7 mm 1 m/s 593 mmHg 84%
    17:00 +18°C° 0.5 mm 1 m/s 593 mmHg 86%
    18:00 +16°C° 0.5 mm 1 m/s 593 mmHg 87%
    19:00 +16°C° 0.5 mm 1 m/s 593 mmHg 88%
    20:00 +16°C° 0.2 mm 1 m/s 593 mmHg 88%
    21:00 +16°C° 0.2 mm 1 m/s 593 mmHg 87%
    22:00 +15°C° 0.2 mm 1 m/s 594 mmHg 87%
    23:00 +15°C° 0.1 mm 1 m/s 593 mmHg 87%

    Mâine, 19 Februarie, Marţi

    Timp Temperatura Precipitaţii Vânt Presiune Umiditate
    00:00 +15°C° 0.1 mm 1 m/s 593 mmHg 88%
    01:00 +15°C° 0.1 mm 1 m/s 593 mmHg 88%
    02:00 +15°C° 0 mm 1 m/s 593 mmHg 89%
    03:00 +15°C° 0 mm 1 m/s 593 mmHg 90%
    04:00 +14°C° 0 mm 1 m/s 592 mmHg 91%
    05:00 +15°C° 0 mm 1 m/s 593 mmHg 89%
    06:00 +15°C° 0 mm 1 m/s 594 mmHg 88%
    07:00 +16°C° 0 mm 1 m/s 594 mmHg 86%
    08:00 +18°C° 0.1 mm 1 m/s 595 mmHg 84%
    09:00 +18°C° 0.1 mm 1 m/s 595 mmHg 82%
    10:00 +19°C° 0.1 mm 1 m/s 596 mmHg 80%
    11:00 +19°C° 0.7 mm 1 m/s 595 mmHg 79%
    12:00 +18°C° 0.7 mm 2 m/s 595 mmHg 79%
    13:00 +19°C° 0.7 mm 2 m/s 594 mmHg 78%
    14:00 +19°C° 1 mm 1 m/s 593 mmHg 79%
    15:00 +19°C° 1 mm 1 m/s 593 mmHg 80%
    16:00 +19°C° 1 mm 1 m/s 592 mmHg 81%
    17:00 +18°C° 0.7 mm 1 m/s 592 mmHg 83%
    18:00 +18°C° 0.7 mm 1 m/s 592 mmHg 84%
    19:00 +16°C° 0.7 mm 1 m/s 592 mmHg 86%
    20:00 +16°C° 0.3 mm 1 m/s 593 mmHg 85%
    21:00 +16°C° 0.3 mm 1 m/s 593 mmHg 84%
    22:00 +15°C° 0.3 mm 1 m/s 593 mmHg 83%
    23:00 +15°C° 0.3 mm 1 m/s 593 mmHg 84%

    Poimâine, 20 Februarie, Miercuri

    Timp Temperatura Precipitaţii Vânt Presiune Umiditate
    00:00 +15°C° 0.3 mm 1 m/s 593 mmHg 84%
    01:00 +15°C° 0.3 mm 1 m/s 592 mmHg 84%
    02:00 +15°C° 0.4 mm 1 m/s 592 mmHg 85%
    03:00 +15°C° 0.4 mm 1 m/s 592 mmHg 85%
    04:00 +14°C° 0.4 mm 1 m/s 591 mmHg 85%
    05:00 +15°C° 1.1 mm 1 m/s 592 mmHg 84%
    06:00 +15°C° 1.1 mm 1 m/s 593 mmHg 83%
    07:00 +15°C° 1.1 mm 1 m/s 593 mmHg 83%
    08:00 +16°C° 1.2 mm 1 m/s 594 mmHg 81%
    09:00 +18°C° 1.2 mm 1 m/s 595 mmHg 79%
    10:00 +18°C° 1.2 mm 1 m/s 595 mmHg 77%
    11:00 +18°C° 1.8 mm 1 m/s 595 mmHg 78%
    12:00 +19°C° 1.8 mm 1 m/s 594 mmHg 78%
    13:00 +19°C° 1.8 mm 1 m/s 593 mmHg 78%
    14:00 +19°C° 1.8 mm 1 m/s 593 mmHg 79%
    15:00 +18°C° 1.8 mm 1 m/s 592 mmHg 81%
    16:00 +18°C° 1.8 mm 1 m/s 591 mmHg 82%
    17:00 +18°C° 0.7 mm 1 m/s 591 mmHg 83%
    18:00 +16°C° 0.7 mm 1 m/s 591 mmHg 85%
    19:00 +15°C° 0.7 mm 1 m/s 592 mmHg 86%
    20:00 +15°C° 0.2 mm 1 m/s 592 mmHg 85%
    21:00 +15°C° 0.2 mm 1 m/s 592 mmHg 84%
    22:00 +15°C° 0.2 mm 1 m/s 593 mmHg 83%
    23:00 +15°C° 0.3 mm 1 m/s 592 mmHg 83%

    21 Februarie, Joi

    Timp Temperatura Precipitaţii Vânt Presiune Umiditate
    00:00 +15°C° 0.3 mm 1 m/s 592 mmHg 84%
    01:00 +15°C° 0.3 mm 1 m/s 592 mmHg 84%
    02:00 +14°C° 0.3 mm 1 m/s 592 mmHg 84%
    03:00 +14°C° 0.3 mm 1 m/s 592 mmHg 84%
    04:00 +14°C° 0.3 mm 2 m/s 592 mmHg 85%
    05:00 +15°C° 0.3 mm 2 m/s 592 mmHg 84%
    06:00 +15°C° 0.3 mm 1 m/s 593 mmHg 83%
    07:00 +16°C° 0.3 mm 1 m/s 594 mmHg 82%
    08:00 +18°C° 0.4 mm 1 m/s 595 mmHg 78%
    09:00 +19°C° 0.4 mm 1 m/s 596 mmHg 74%
    10:00 +21°C° 0.4 mm 1 m/s 596 mmHg 71%
    11:00 +20°C° 1.3 mm 1 m/s 596 mmHg 73%
    12:00 +20°C° 1.3 mm 1 m/s 595 mmHg 76%
    13:00 +20°C° 1.3 mm 1 m/s 594 mmHg 79%
    14:00 +20°C° 1.8 mm 1 m/s 593 mmHg 79%
    15:00 +20°C° 1.8 mm 1 m/s 592 mmHg 79%
    16:00 +19°C° 1.8 mm 1 m/s 592 mmHg 78%
    17:00 +19°C° 0.9 mm 1 m/s 592 mmHg 80%
    18:00 +18°C° 0.9 mm 1 m/s 592 mmHg 82%
    19:00 +16°C° 0.9 mm 1 m/s 592 mmHg 84%
    20:00 +16°C° 0.4 mm 1 m/s 593 mmHg 83%
    21:00 +16°C° 0.4 mm 1 m/s 593 mmHg 82%
    22:00 +16°C° 0.4 mm 1 m/s 593 mmHg 81%
    23:00 +15°C° 0.1 mm 1 m/s 593 mmHg 81%

    22 Februarie, Vineri

    Timp Temperatura Precipitaţii Vânt Presiune Umiditate
    00:00 +15°C° 0.1 mm 1 m/s 592 mmHg 81%
    01:00 +14°C° 0.1 mm 1 m/s 592 mmHg 82%
    02:00 +14°C° 0 mm 2 m/s 592 mmHg 81%
    03:00 +14°C° 0 mm 2 m/s 591 mmHg 81%
    04:00 +13°C° 0 mm 2 m/s 591 mmHg 80%
    05:00 +14°C° 0.1 mm 2 m/s 592 mmHg 77%
    06:00 +15°C° 0.1 mm 2 m/s 593 mmHg 74%
    07:00 +15°C° 0.1 mm 2 m/s 594 mmHg 70%
    08:00 +17°C° 0 mm 2 m/s 595 mmHg 66%
    09:00 +19°C° 0 mm 2 m/s 596 mmHg 63%
    10:00 +22°C° 0 mm 1 m/s 597 mmHg 59%
    11:00 +22°C° 0.3 mm 1 m/s 596 mmHg 63%
    12:00 +21°C° 0.3 mm 1 m/s 595 mmHg 68%
    13:00 +20°C° 0.3 mm 2 m/s 594 mmHg 72%
    14:00 +20°C° 0.5 mm 1 m/s 593 mmHg 74%
    15:00 +20°C° 0.5 mm 1 m/s 593 mmHg 75%
    16:00 +20°C° 0.5 mm 1 m/s 592 mmHg 76%
    17:00 +19°C° 0.3 mm 1 m/s 592 mmHg 80%
    18:00 +18°C° 0.3 mm 1 m/s 592 mmHg 83%
    19:00 +15°C° 0.3 mm 0 m/s 593 mmHg 87%
    20:00 +15°C° 0.1 mm 0 m/s 593 mmHg 87%
    21:00 +16°C° 0.1 mm 1 m/s 593 mmHg 87%
    22:00 +15°C° 0.1 mm 1 m/s 593 mmHg 87%
    23:00 +15°C° 0.1 mm 1 m/s 593 mmHg 87%

    23 Februarie, Sâmbătă

    Timp Temperatura Precipitaţii Vânt Presiune Umiditate
    00:00 +15°C° 0.1 mm 1 m/s 593 mmHg 86%
    01:00 +15°C° 0.1 mm 1 m/s 592 mmHg 85%
    02:00 +14°C° 0 mm 1 m/s 592 mmHg 85%
    03:00 +14°C° 0 mm 1 m/s 592 mmHg 84%
    04:00 +14°C° 0 mm 2 m/s 592 mmHg 84%
    05:00 +14°C° 0 mm 2 m/s 593 mmHg 81%
    06:00 +15°C° 0 mm 2 m/s 594 mmHg 78%
    07:00 +15°C° 0 mm 2 m/s 594 mmHg 75%
    08:00 +17°C° 0 mm 2 m/s 595 mmHg 73%
    09:00 +18°C° 0 mm 2 m/s 596 mmHg 70%
    10:00 +21°C° 0 mm 1 m/s 597 mmHg 67%
    11:00 +21°C° 0.2 mm 1 m/s 596 mmHg 68%
    12:00 +21°C° 0.2 mm 1 m/s 595 mmHg 69%
    13:00 +20°C° 0.2 mm 1 m/s 594 mmHg 70%
    14:00 +21°C° 0.1 mm 1 m/s 593 mmHg 67%
    15:00 +21°C° 0.1 mm 1 m/s 593 mmHg 65%
    16:00 +21°C° 0.1 mm 1 m/s 593 mmHg 62%
    17:00 +20°C° 0.1 mm 1 m/s 592 mmHg 67%
    18:00 +18°C° 0.1 mm 1 m/s 592 mmHg 73%
    19:00 +14°C° 0.1 mm 0 m/s 592 mmHg 79%
    20:00 +15°C° 0 mm 1 m/s 592 mmHg 77%
    21:00 +15°C° 0 mm 1 m/s 592 mmHg 75%
    22:00 +14°C° 0 mm 1 m/s 592 mmHg 73%
    23:00 +14°C° 0 mm 1 m/s 592 mmHg 68%
    Arată mai mult